SL-14 DEB, 45291

Orbit data source: Space-Track

SL-14 DEB, 45291 is space debris in LEO originally from a launch on Thu, 15 Aug 1991 UTC launched from the Plesetsk Missile And Space Complex (PKMTR). Debris objects in space refer to the collection of defunct objects orbiting the Earth. Examples of debris include non-operational satellites, rocket bodies, and fragments generated from explosions, collisions, or faulty payload assembly.

Loading next visibility...
Identifier
45291, 1991-056AD
Orbit
LEO
Country
Flag of CISCIS
Related business
Manufacturer
Unknown
Mission
Spacecraft
Bus & Motor
Unknown
Mass
Unknown
Launch date (UTC)
1991-08-15 (34 years ago)
Launch vehicle
Unknown
Launch site
Plesetsk Missile And Space Complex (PKMTR)
Object type
Payload
Rocket body
Debris
Shape & HBR
Unknown
Radar Cross Section
Small (<0.1 m²)

Expand to show TLE details & history
Last TLE update: 2 days ago

TLE from 2 days ago
0 SL-14 DEB
1 45291U 91056AD  25259.56792889  .00000209  00000-0  56010-3 0  9995
2 45291  82.5510 348.7296 0036357 267.9714  91.7241 13.10758475266721
Epoch: 2025-09-16T13:37Z
TLE epoch observation values (Epoch: 2025-09-16T13:37:49.056Z)
Latitude
-0.00001°
Longitude
148.51883°
Altitude
1,223.956 km
Speed
7.242 km/s
True Right ascension
23h 14m 55s
True Declination
0° 00' 00"
Sunlit
Object was in full shadow at epoch
Visualization orbit readout
Latitude
Unknown
Longitude
Unknown
Altitude
Unknown
Speed
Unknown
Apparent Right ascension
Unknown
Apparent Declination
Unknown
Sunlit
N/A
Visualization observer readout
Local Sidereal Time
23:31:51
Azimuth
Unknown
Elevation
Unknown
Doppler factor
Unknown
Orbital elements
Apogee altitude
1,245.095 km
Perigee altitude
1,189.864 km
Semi-major axis
7,595.617 km
Eccentricity
0.00364
Inclination
82.551°
RAAN
348.7296°
Arg. of periapsis
267.9714°
True anomaly
92.14047°
Mean anomaly
91.7241°
Eccentric anomaly
91.93229°
Mean motion
3.27868 °/min
Orbital period
109.8 mins
BSTAR
0.0005601
Loading maneuver chart data...
Computing Atmospheric mass density...
Loading historical data...
Loading historical data...
Loading historical data...
Loading historical data...
Loading historical data...
Loading historical data...
Loading historical data...

Documentation

Showing up to 5 results
|